Flag for Bahamas Weather past 2 weeks in Nassau, Bahamas

Now
81 °F

Scattered clouds.


Feels Like: 84 °F
Forecast: 73 / 80 °F
Wind: 10 mph from Southeast

Location: Nassau Airport

Current Time: Feb 28, 2015 at 12:06:05 PM

Latest Report: Feb 28, 2015 at 11:00 AM


Visibility: N/A

Pressure: 30.27 "Hg

Humidity: 70%

Dew point: 70 °F

Location of NassauLocation

Historic Weather in Nassau — Graph

°F

Nassau temperature yesterday

Maximum temperature yesterday: 86 °F (at 1:00 PM)
Minimum temperature yesterday: 73 °F (at 6:00 AM)
Average temperature yesterday: 78 °F

Past Weeks' High & Low Weather Summary

 TemperatureHumidityPressure
High86 °F (Feb 27, 1:00 PM)100% (Feb 18, 4:00 PM)30.32 "Hg (Feb 18, 4:00 PM)
Low54 °F (Feb 20, 6:00 AM)48% (Feb 19, 5:00 PM)29.89 "Hg (Feb 26, 4:00 AM)
Average72 °F74%30.11 "Hg
* Reported Feb 13 11:00 AM — Feb 28 11:00 AM, Nassau, Weather by CustomWeather, © 2015

Note: Actual official high and low records may vary slightly from our data, if they occured in-between our weather recording intervals... More about our weather records

Advertising

Nassau weather history for previous 24 hours

 ConditionsComfort  
Time TempWeatherWind HumidityBarometerVisibility
11:00 AM
Sat, Feb 28
81 °FScattered clouds.10 mph70%30.27 "HgN/A
10:00 AM82 °FScattered clouds.9 mph70%30.26 "HgN/A
9:00 AM75 °FPartly sunny.6 mph89%30.25 "HgN/A
8:00 AM75 °FScattered clouds.7 mph100%30.23 "HgN/A
7:00 AM75 °FPassing clouds.5 mph94%30.20 "HgN/A
6:00 AM75 °FPassing clouds.5 mph89%30.18 "HgN/A
5:00 AM75 °FPassing clouds.3 mph89%30.16 "HgN/A
4:00 AM75 °FPassing clouds.6 mph94%30.15 "HgN/A
3:00 AM75 °FPassing clouds.7 mph89%30.14 "HgN/A
1:00 AM75 °FPassing clouds.6 mph100%30.15 "HgN/A
12:00 AM75 °FPassing clouds.5 mph89%30.15 "HgN/A
11:00 PM
Fri, Feb 27
75 °FPassing clouds.5 mph89%30.16 "HgN/A
10:00 PM75 °FPassing clouds.2 mph89%30.14 "HgN/A
9:00 PM75 °FPassing clouds.2 mph83%30.13 "HgN/A
8:00 PM75 °FPassing clouds.No wind83%30.11 "HgN/A
7:00 PM77 °FPartly cloudy.2 mph83%30.11 "HgN/A
6:00 PM77 °FBroken clouds.7 mph79%30.09 "HgN/A
5:00 PM79 °FScattered clouds.7 mph74%30.09 "HgN/A
4:00 PM86 °FPassing clouds.5 mph62%30.07 "HgN/A
3:00 PM84 °FPassing clouds.5 mph58%30.06 "HgN/A
2:00 PM82 °FPassing clouds.5 mph66%30.08 "HgN/A
1:00 PM86 °FScattered clouds.8 mph70%30.10 "HgN/A
12:00 PM81 °FBroken clouds.9 mph79%30.11 "HgN/A
Weather by CustomWeather, © 2015

See weather overviewHow to use our weather pages